This is the latest recevied weather packets stored in our database for station/object K6CEG. If no packets are shown the sender has not sent any weather packets the latest 10 day(s).
| Time | Temp. | Humidity | Pressure | Rain* | Wind** | Luminosity | Snow |
|---|---|---|---|---|---|---|---|
| 1788601733 | 18.89° C | 74% | 1015.4 hPa | 0 mm | - | 0 W/m² | - |
| 1788601429 | 18.89° C | 75% | 1015.5 hPa | 0 mm | - | 0 W/m² | - |
| 1788601127 | 18.89° C | 75% | 1015.4 hPa | 0 mm | - | 0 W/m² | - |
| 1788600823 | 18.89° C | 75% | 1015.2 hPa | 0 mm | - | 0 W/m² | - |
| 1788600519 | 18.33° C | 75% | 1015.5 hPa | 0 mm | - | 0 W/m² | - |
| 1788600218 | 18.33° C | 75% | 1015.5 hPa | 0 mm | - | 0 W/m² | - |
| 1788599914 | 17.78° C | 75% | 1015.6 hPa | 0 mm | - | 0 W/m² | - |
| 1788599614 | 18.33° C | 75% | 1015.6 hPa | 0 mm | - | 0 W/m² | - |
| 1788599312 | 18.33° C | 75% | 1015.6 hPa | 0 mm | - | 0 W/m² | - |
| 1788599009 | 18.33° C | 75% | 1015.6 hPa | 0 mm | - | 0 W/m² | - |
| 1788598708 | 18.33° C | 74% | 1015.7 hPa | 0 mm | - | 0 W/m² | - |
| 1788598408 | 18.89° C | 74% | 1015.8 hPa | 0 mm | - | 0 W/m² | - |
| 1788598104 | 18.89° C | 73% | 1015.6 hPa | 0 mm | - | 0 W/m² | - |
| 1788597803 | 18.89° C | 73% | 1015.5 hPa | 0 mm | - | 0 W/m² | - |
| 1788597498 | 18.89° C | 73% | 1015.7 hPa | 0 mm | - | 0 W/m² | - |
| 1788597194 | 18.89° C | 73% | 1015.8 hPa | 0 mm | - | 0 W/m² | - |
| 1788596889 | 18.89° C | 73% | 1015.7 hPa | 0 mm | - | 0 W/m² | - |
| 1788596585 | 18.89° C | 72% | 1015.7 hPa | 0 mm | - | 0 W/m² | - |
| 1788596319 | 18.89° C | 73% | 1015.5 hPa | 0 mm | - | 0 W/m² | - |
| 1788595980 | 18.89° C | 73% | 1015.6 hPa | 0 mm | - | 0 W/m² | - |
| 1788595680 | 18.89° C | 72% | 1015.6 hPa | 0 mm | - | 0 W/m² | - |
| 1788595380 | 18.89° C | 71% | 1015.8 hPa | 0 mm | - | 0 W/m² | - |
| 1788595079 | 18.89° C | 71% | 1015.6 hPa | 0 mm | - | 0 W/m² | - |
| 1788594779 | 19.44° C | 71% | 1015.7 hPa | 0 mm | - | 0 W/m² | - |
| 1788594478 | 19.44° C | 72% | 1015.9 hPa | 0 mm | - | 0 W/m² | - |
* Rain latest hour (hover to see other rain measurements)
** Current wind speed in m/s (hover to see current wind gust speed)